Wind_Speed
10 12 13 14 15 17 18 20 21 22 22 22 22 21 20 18 17 16 16 16 16 16 16 16 17 16 15 14 14 13 12 12 12 12 13 13 12 11 10 8 6 4 3 4 4 6 7 7 6 6 5 7 8 9 11 12 12 13 13 12 11 10 10 10 10 10 10 9 7 4 3 3 4 5 5 6 6 6 6 6 6 6 6 6 6
10 11 13 14 15 17 18 20 20 21 21 22 21 21 21 19 17 16 16 16 16 17 17 17 17 16 15 14 13 12 12 11 11 11 12 12 11 11 9 7 5 3 2 3 4 6 7 7 7 6 5 6 7 9 11 13 13 13 13 11 10 10 10 10 11 12 12 12 9 5 2 2 3 3 4 4 5 5 5 5 6 6 7 7 7
11 11 12 14 15 16 18 20 20 21 22 21 21 22 21 20 18 17 16 16 17 17 18 18 17 15 14 13 13 12 10 10 10 11 11 12 12 11 9 7 5 3 2 2 4 6 7 7 7 6 5 5 7 9 11 13 13 12 11 11 11 11 10 10 11 12 13 13 12 10 7 5 4 4 4 4 4 4 4 4 5 6 7 7 8
13 12 12 14 16 17 18 20 21 22 22 21 21 22 21 21 19 18 18 17 17 17 18 18 16 14 13 12 12 11 10 10 11 12 13 12 12 11 9 7 5 3 1 2 4 6 7 7 6 5 5 5 6 9 11 13 12 10 10 11 11 11 10 10 11 12 13 13 13 12 11 9 7 6 6 5 5 4 4 3 4 5 6 7 8
16 14 13 14 16 18 19 20 22 22 23 23 22 22 22 22 21 21 20 19 17 17 18 18 16 14 13 13 13 12 12 13 13 14 13 12 11 9 8 6 5 3 1 1 3 5 6 7 6 5 5 5 6 8 11 11 9 9 10 11 11 10 9 9 10 11 12 12 12 13 12 11 10 9 8 8 8 6 5 4 3 4 5 5 6
17 16 15 15 17 19 20 21 22 22 23 24 23 23 23 23 23 22 21 19 18 17 17 17 16 16 15 15 14 15 15 14 13 12 12 12 10 9 8 7 6 4 1 1 3 4 6 6 6 5 5 4 5 7 10 9 7 8 9 9 9 8 8 8 9 10 11 11 12 12 12 11 11 10 10 9 9 9 9 8 6 5 4 4 5
18 17 16 15 16 19 21 22 22 23 24 24 24 24 24 24 23 23 21 20 19 18 17 16 16 16 16 17 17 16 15 13 11 11 12 12 11 10 10 8 6 3 1 1 3 4 5 6 6 5 5 5 4 6 8 8 6 8 8 7 6 6 7 8 9 9 10 11 12 12 12 11 11 10 10 9 9 10 10 10 9 7 6 5 5
19 18 18 17 16 17 20 22 23 24 25 25 25 24 24 24 24 23 22 21 20 19 18 17 16 16 17 17 16 16 15 13 13 13 13 13 13 12 11 9 6 4 2 1 2 3 5 6 6 6 5 5 5 6 7 6 5 6 6 5 4 4 5 6 7 8 8 9 9 10 10 11 10 10 10 9 9 9 9 9 9 8 8 6 5
19 19 19 18 17 17 19 21 23 24 24 25 25 25 25 25 25 24 23 22 21 20 19 18 17 17 16 16 15 15 15 14 15 15 14 14 14 13 11 9 6 5 3 2 2 3 4 6 7 6 5 5 5 6 7 6 4 4 4 3 2 2 3 5 6 7 7 7 7 7 8 8 9 9 10 9 9 9 8 8 7 7 7 7 6
19 19 18 19 19 19 19 20 22 22 23 24 25 25 25 25 25 25 24 23 22 21 20 19 18 17 16 15 15 15 14 14 15 15 16 15 15 13 11 9 6 5 4 3 3 3 4 5 6 7 5 5 5 6 7 6 3 3 3 1 1 1 2 4 5 5 6 7 7 8 8 8 8 8 9 9 9 9 8 7 7 6 6 7 7
19 19 19 20 21 21 20 20 21 21 23 23 23 23 23 24 25 24 24 23 23 22 21 20 19 18 17 17 17 16 15 15 15 16 17 16 15 14 12 10 8 7 7 6 4 4 4 5 6 7 6 5 5 7 7 7 4 2 2 1 0 1 2 4 5 5 6 7 8 9 9 9 8 8 8 9 8 8 7 6 6 5 5 5 5
22 21 21 22 22 22 21 20 20 21 22 22 22 22 22 22 23 22 22 22 21 21 21 20 19 19 19 18 18 17 16 16 17 17 17 17 16 15 14 13 11 10 9 8 6 6 6 5 6 6 6 6 6 7 8 8 6 3 1 1 1 1 3 4 4 5 6 8 9 9 9 9 9 9 9 9 9 8 8 7 6 5 5 4 4
24 23 22 23 22 22 22 22 22 21 22 22 22 22 22 22 22 21 21 20 20 20 20 20 19 19 19 19 19 18 17 17 18 18 18 17 17 16 16 15 13 12 11 9 8 8 8 6 6 6 7 6 6 7 8 8 7 5 2 1 1 1 2 3 4 5 7 8 9 9 10 9 9 9 10 10 9 9 9 9 8 8 8 8 8
25 24 24 23 23 23 24 24 23 22 22 22 22 22 23 23 23 23 22 22 22 22 22 21 20 20 20 20 19 19 18 18 18 18 18 18 17 17 17 16 15 14 12 10 10 10 9 8 7 7 7 7 7 8 9 9 8 6 3 2 2 1 2 3 4 5 7 8 9 10 10 10 10 10 9 10 10 10 10 10 9 9 9 9 9
26 25 24 23 23 24 25 25 24 24 24 24 23 23 23 24 24 24 24 24 24 23 23 22 21 21 21 20 20 19 19 18 18 18 18 18 18 18 18 17 17 16 14 12 12 12 11 10 9 8 8 8 8 8 9 9 9 8 5 4 3 3 2 3 4 5 7 9 10 10 10 10 11 10 9 10 10 10 10 10 10 9 8 8 8
26 25 24 24 24 25 26 26 26 26 26 25 24 24 23 23 23 23 24 23 23 23 23 22 22 22 21 21 20 20 19 19 18 19 19 19 18 18 18 18 18 17 16 14 14 13 12 11 11 10 9 9 9 9 10 10 10 9 7 6 5 4 3 3 5 6 8 10 11 11 12 12 11 11 10 10 10 10 10 10 10 10 9 9 8
26 25 24 24 25 26 26 27 27 27 27 26 25 24 23 22 22 23 23 23 23 22 22 22 22 22 22 21 20 19 19 19 19 20 20 20 19 18 19 18 18 18 17 16 15 15 14 13 13 12 11 11 11 11 10 10 10 10 8 7 7 5 4 4 5 7 9 10 12 13 14 14 13 12 11 10 10 10 10 10 10 11 11 10 10
26 25 25 25 25 26 27 27 28 28 28 26 25 25 24 23 23 23 22 22 22 22 22 22 23 23 22 21 20 20 20 20 21 21 21 20 19 19 19 19 19 19 18 17 16 16 15 15 14 14 13 13 13 13 12 11 11 10 9 8 8 7 6 6 6 7 9 10 12 14 15 15 15 14 13 12 11 11 10 11 11 11 12 12 11
27 25 25 24 24 23 24 25 26 27 28 27 27 26 26 25 24 23 22 21 22 23 23 24 23 22 22 21 21 20 20 20 21 21 21 20 21 21 21 21 21 20 19 18 18 17 17 17 16 16 15 15 15 15 14 13 12 11 10 9 9 9 8 7 7 8 9 10 11 13 15 16 16 16 16 15 15 14 13 13 12 12 12 12 12
27 26 24 22 21 19 19 21 23 25 27 27 28 28 27 27 25 24 23 22 23 23 23 23 22 22 21 21 20 20 19 20 20 21 21 21 22 22 23 22 22 22 20 19 19 18 18 18 18 18 17 16 16 16 16 15 13 12 11 10 10 9 9 9 9 9 10 10 11 13 15 16 17 17 18 19 20 18 16 15 14 14 14 14 14
28 26 24 21 20 18 18 20 23 26 27 28 29 29 28 28 26 25 24 23 23 23 23 23 22 22 21 21 20 20 20 20 21 21 21 21 22 23 23 24 24 23 22 21 20 20 20 20 20 20 19 18 18 17 17 17 16 14 12 12 11 10 10 10 11 11 11 12 12 14 16 18 18 18 19 22 23 20 17 16 15 15 16 17 18
30 28 25 23 22 21 21 22 24 26 26 28 29 29 28 27 26 26 25 24 23 22 22 22 22 22 22 22 21 21 21 22 22 21 21 21 22 23 24 25 24 24 24 23 22 22 21 22 22 22 21 20 19 19 18 18 18 16 15 14 12 11 11 11 12 12 12 13 14 15 17 20 21 20 21 22 22 20 18 17 17 17 18 19 21
31 30 28 25 24 24 24 24 25 24 24 27 29 29 28 27 27 27 26 25 23 22 22 22 22 22 22 23 22 22 23 23 22 21 20 21 22 23 24 24 24 25 24 23 23 23 23 23 24 24 23 22 21 20 20 19 19 19 17 16 14 13 12 12 13 13 13 14 14 16 18 21 22 21 21 22 21 20 19 19 19 19 19 20 21
32 31 30 29 29 28 27 26 25 24 24 26 27 28 29 29 29 29 27 26 25 24 23 23 23 23 23 23 23 23 23 23 22 21 21 22 22 22 23 23 24 24 23 23 23 24 24 24 24 24 24 24 23 22 21 21 21 21 20 18 16 15 14 14 14 14 14 14 15 16 19 21 22 22 21 21 21 21 21 21 21 22 22 21 21
35 34 34 34 33 31 29 28 26 25 25 26 26 26 27 29 29 29 28 28 28 26 23 23 24 24 24 23 23 23 23 23 23 22 22 22 22 21 21 21 21 21 20 21 21 22 23 23 24 24 25 25 25 24 23 23 23 23 22 21 18 16 16 16 15 14 15 15 16 17 19 21 23 22 21 21 21 22 22 23 24 24 23 22 22
37 38 38 38 36 34 32 31 29 27 26 26 26 26 26 27 27 28 28 29 29 28 25 24 25 25 23 22 23 23 22 22 23 23 22 22 21 20 19 19 19 18 17 17 17 18 20 21 22 23 24 25 25 25 24 24 25 25 24 23 20 18 17 18 17 16 16 16 17 17 19 21 22 22 22 22 23 23 23 25 26 24 22 23 24
39 39 40 40 39 37 35 34 32 29 27 27 27 27 27 26 25 26 28 30 30 29 27 25 25 25 23 22 22 22 22 22 23 22 22 21 20 18 16 16 15 14 13 11 11 12 14 17 19 20 21 23 24 25 25 25 26 26 25 25 22 20 19 19 19 18 18 18 17 17 18 20 22 23 23 23 24 23 23 26 26 23 22 24 26
40 40 40 41 41 39 37 36 35 32 29 28 28 28 27 26 25 25 27 30 30 30 28 27 26 25 23 21 22 22 22 23 23 23 22 21 18 15 13 13 13 11 9 8 6 7 9 11 14 16 18 19 22 23 23 24 25 26 26 26 24 22 21 22 22 21 20 20 19 18 18 20 22 23 24 23 24 24 25 26 25 20 21 25 27
42 41 40 41 42 41 40 38 37 35 32 29 28 27 26 24 24 24 25 28 31 31 30 29 27 24 22 21 23 23 23 24 24 23 22 20 18 15 14 13 12 11 9 7 5 5 7 9 12 13 16 17 19 20 20 22 24 25 26 26 26 24 23 24 24 24 23 22 21 20 19 19 22 24 25 24 24 25 26 26 23 19 21 25 26
43 43 43 43 43 43 42 41 39 37 33 29 27 26 25 23 23 23 23 26 29 31 31 29 26 23 22 22 24 24 24 24 24 23 22 21 19 16 15 14 13 12 10 8 7 7 8 9 11 13 15 17 18 18 19 21 23 24 26 27 27 25 25 26 26 26 26 24 23 22 21 20 22 24 26 26 25 26 27 26 23 20 21 25 27
39 41 43 44 44 42 42 41 40 38 35 31 27 25 25 24 23 23 23 25 27 28 27 25 23 22 22 23 24 25 25 24 23 23 22 21 19 18 16 15 14 13 11 10 10 10 10 11 12 14 15 17 18 18 18 20 22 24 25 27 27 26 26 27 27 27 28 27 26 25 23 22 22 24 26 28 27 28 28 27 25 23 25 27 30
32 33 34 36 38 38 38 39 40 39 38 34 29 27 26 26 24 23 24 25 25 25 24 23 23 23 23 23 23 24 24 23 22 21 21 21 20 19 17 16 15 14 13 14 14 13 13 14 14 15 16 17 18 18 18 20 22 23 24 26 27 27 27 27 27 28 29 29 29 27 25 24 23 25 27 29 30 31 32 30 28 27 28 30 32
27 27 27 28 30 32 34 36 37 38 39 37 33 29 27 25 24 24 25 25 23 23 23 22 23 23 22 22 22 22 21 20 20 21 21 21 21 20 18 17 16 16 16 17 17 17 17 16 16 16 17 18 19 19 19 20 22 24 24 26 27 28 28 29 28 28 29 31 30 29 27 25 25 26 28 29 31 33 35 33 30 29 30 33 35
26 25 24 23 23 26 28 30 32 33 35 36 34 31 29 27 25 25 25 23 22 22 22 22 21 21 20 20 20 20 19 20 20 21 21 22 22 21 20 19 18 18 19 19 19 19 19 19 19 18 19 20 20 19 19 21 23 25 26 28 29 29 30 30 30 30 30 31 31 30 29 27 27 28 29 30 32 34 36 35 32 31 33 35 38
27 26 25 22 21 22 23 24 26 26 28 30 32 32 31 29 27 25 24 23 23 23 23 22 21 20 20 20 19 18 19 20 21 22 21 22 23 23 22 21 21 20 21 20 20 20 19 19 20 20 20 21 20 20 20 20 23 26 28 30 31 32 32 32 32 33 32 32 32 31 30 29 29 30 31 32 34 36 38 37 35 35 36 38 40
29 29 27 25 24 23 21 21 22 23 24 26 29 31 31 29 28 26 24 24 25 24 24 23 22 21 21 20 20 20 20 20 21 22 22 21 21 22 22 23 23 22 22 22 22 22 22 23 23 23 22 22 23 23 23 22 23 26 29 31 33 33 33 33 34 35 35 34 33 32 32 32 32 32 32 34 36 37 39 39 38 38 39 40 42
32 31 30 29 27 25 23 22 22 23 25 26 28 30 30 29 28 27 26 26 27 26 26 26 25 24 23 22 22 22 23 22 22 22 22 21 21 22 23 24 24 25 25 25 25 25 26 27 28 27 26 25 25 26 26 25 25 27 30 32 33 34 34 34 35 36 36 36 35 34 34 34 35 34 35 36 38 39 40 41 41 41 41 42 44
34 34 33 31 29 27 26 24 24 25 26 27 28 29 29 29 29 28 26 27 27 27 27 28 28 27 26 25 24 23 24 25 23 22 23 24 24 24 25 25 25 26 26 27 27 28 28 29 30 31 31 30 30 29 28 28 29 30 33 33 34 34 34 34 34 35 36 36 37 37 37 37 37 37 37 39 41 42 43 42 43 45 45 45 47
36 36 35 33 31 30 28 27 26 27 28 28 29 30 30 30 30 29 28 26 26 27 28 29 29 28 27 26 25 24 25 25 24 24 25 26 26 27 27 28 29 28 27 28 29 29 29 29 29 31 33 34 34 33 32 30 31 32 34 35 36 36 35 35 34 34 34 35 37 39 39 40 41 41 41 43 44 46 46 45 46 48 49 49 50
38 37 36 36 34 32 31 30 29 29 30 30 31 31 31 31 31 31 29 27 26 28 29 30 30 30 28 27 26 26 26 26 26 26 27 27 27 29 30 32 31 30 30 30 30 31 31 30 29 30 32 33 34 34 34 33 33 34 35 37 39 38 36 37 37 36 35 35 37 39 40 42 44 45 45 46 48 49 49 49 49 50 52 53 54
38 38 37 37 36 35 34 33 32 31 31 32 33 32 32 32 32 31 30 29 29 30 31 32 33 33 31 30 28 28 27 27 28 30 30 30 30 32 34 35 34 34 33 33 33 33 34 34 33 34 34 34 34 35 36 35 34 35 36 39 40 39 38 40 40 39 38 38 39 40 40 42 46 48 48 49 52 54 54 54 53 53 55 57 58
38 38 38 37 37 37 36 35 35 34 33 34 34 34 33 33 33 32 32 31 31 32 33 35 36 36 35 34 33 32 31 31 32 33 34 34 34 35 37 37 37 37 37 36 37 37 37 37 38 39 39 38 38 38 38 37 35 35 36 38 39 40 40 42 44 44 43 43 43 44 43 42 46 50 51 52 56 57 58 58 58 58 60 61 62
39 38 38 37 37 38 37 37 37 36 35 36 36 36 35 35 34 34 34 33 33 34 35 36 38 38 38 37 36 36 36 36 36 37 36 36 37 38 38 38 39 39 39 39 40 41 41 41 42 43 42 42 41 40 40 38 37 36 37 38 39 41 42 45 46 46 46 47 48 50 49 46 47 50 51 53 58 61 61 61 61 61 64 65 66
40 40 39 38 38 38 38 38 37 37 36 36 37 37 37 36 36 36 36 36 36 36 37 37 38 39 39 38 38 39 40 40 40 40 39 38 38 39 39 39 40 41 41 42 42 43 44 44 45 45 45 44 44 43 43 40 38 39 40 41 42 43 44 45 45 45 47 49 50 52 51 49 50 51 51 52 58 62 63 62 61 62 65 67 67
41 41 41 40 39 39 38 38 38 38 37 36 37 38 38 37 38 38 38 38 38 38 39 39 40 40 41 41 40 40 40 40 41 40 39 39 39 40 41 41 41 42 43 43 43 44 46 47 47 47 47 46 46 46 45 43 41 41 43 44 45 45 45 46 46 47 50 53 53 53 52 50 52 56 56 58 60 61 61 60 60 61 63 64 65
40 42 42 42 41 39 38 38 38 38 38 37 37 38 38 38 39 39 39 40 40 40 40 41 41 41 42 42 41 40 40 40 40 40 40 40 40 41 42 42 43 44 44 44 44 45 47 48 49 49 50 49 49 48 46 44 44 45 45 45 46 46 47 48 49 50 55 58 59 57 54 52 53 56 58 60 62 62 62 63 63 62 61 61 63
40 41 42 42 42 40 39 38 38 38 39 39 38 38 39 39 39 39 40 41 41 42 42 42 42 42 42 42 42 41 41 41 42 42 42 42 42 43 43 44 45 45 44 45 46 47 49 51 52 53 53 53 52 51 49 46 45 46 46 47 47 47 49 51 52 54 59 62 61 59 57 56 56 57 58 59 60 62 63 64 65 65 64 62 61
41 41 41 41 41 41 40 39 38 39 39 40 40 39 39 39 40 40 41 42 42 43 43 43 43 43 44 44 44 44 44 44 45 45 45 45 45 46 47 47 47 46 46 47 48 50 51 53 54 55 55 56 55 54 52 49 46 46 48 49 50 50 51 53 55 57 62 66 65 62 60 58 57 58 59 59 59 59 58 58 59 61 63 63 59
43 41 40 40 40 40 40 40 39 39 39 39 40 40 41 41 41 42 42 42 43 44 44 45 45 45 46 46 46 47 47 48 48 49 49 49 49 49 50 49 49 49 49 50 51 53 53 54 55 55 56 57 57 56 56 53 51 52 53 54 54 54 54 56 57 61 67 71 69 66 64 61 59 60 60 60 60 59 56 55 55 56 59 64 61
44 43 41 40 39 39 39 39 39 39 38 38 39 39 40 41 42 42 42 42 42 43 44 45 46 47 48 49 49 49 49 49 49 48 48 48 48 49 49 49 50 50 51 52 53 53 53 54 55 56 56 57 58 58 58 57 56 56 57 58 58 58 59 60 61 65 70 72 72 69 66 62 61 61 61 62 63 60 56 56 56 54 53 57 57
45 44 43 42 41 40 39 39 39 39 38 37 37 37 37 38 40 41 41 41 42 42 44 45 46 47 48 49 48 48 47 46 45 44 43 43 44 45 46 48 49 50 51 52 53 54 54 55 56 57 57 58 59 59 60 60 59 59 60 62 62 62 63 65 67 69 71 73 74 73 70 67 67 67 66 66 63 60 59 59 55 49 47 50 52
Wind_Direction
178 185 183 182 186 189 191 192 189 186 183 182 181 180 179 178 179 182 186 190 191 192 193 195 194 194 195 194 191 188 184 182 181 180 181 182 183 181 178 175 171 159 119 82 62 47 36 27 22 18 19 23 27 24 18 14 10 7 9 19 26 24 22 19 13 8 6 2 349 330 309 311 314 313 307 299 292 287 284 283 282 283 286 289 293
172 182 183 184 188 190 191 192 190 188 187 185 183 184 182 181 181 181 183 187 191 193 195 197 198 196 194 193 190 187 185 186 185 185 186 186 187 186 183 181 178 166 117 62 47 38 31 24 16 13 19 26 26 21 16 14 12 10 16 32 44 44 40 33 27 24 23 25 25 26 24 357 342 334 323 315 310 301 295 289 285 283 279 280 282
170 177 182 185 189 192 192 192 190 188 189 187 185 186 184 183 182 179 181 188 191 194 197 200 200 198 194 192 190 188 188 189 190 191 192 192 192 192 190 188 187 176 124 57 36 30 25 19 12 8 15 24 23 18 14 11 11 16 30 48 59 59 53 45 39 36 36 39 44 49 55 51 31 18 7 353 345 329 319 311 296 289 285 284 284
171 171 177 185 189 193 194 194 192 188 188 188 187 187 186 184 182 181 185 189 192 195 198 199 199 198 194 194 193 190 191 194 196 198 198 197 197 196 194 192 192 187 141 61 32 24 19 13 8 4 7 19 21 15 10 8 13 27 44 60 69 66 60 53 47 44 44 47 51 53 57 59 53 42 33 24 21 7 352 343 316 303 298 292 289
171 168 173 185 191 194 195 197 195 190 188 188 188 188 188 187 184 185 188 190 191 194 195 195 196 195 195 197 198 196 200 203 202 201 201 200 200 199 199 200 201 197 173 68 35 24 17 8 1 358 360 12 19 13 7 6 18 38 53 65 71 68 63 57 51 47 45 47 50 51 52 54 53 50 45 39 36 32 21 14 351 322 313 303 295
174 168 172 183 192 196 196 198 198 195 192 189 189 190 190 189 187 187 189 188 189 188 186 187 189 191 195 199 202 203 205 207 205 203 203 205 205 205 207 211 212 206 198 46 32 22 15 6 356 351 351 0 11 9 4 7 26 47 56 65 69 70 68 61 54 50 45 43 45 45 45 44 43 42 42 40 37 34 29 25 18 357 337 322 306
180 172 171 178 191 199 198 198 199 198 196 192 191 192 191 190 188 188 188 185 183 179 178 180 183 187 192 199 204 207 210 212 214 214 211 209 209 209 213 219 221 217 223 2 22 15 10 3 352 346 343 346 356 0 0 7 34 50 55 61 63 68 69 62 55 48 42 42 42 41 41 41 38 35 35 34 32 31 27 24 21 14 5 354 334
188 178 171 173 184 197 200 198 199 200 197 193 192 194 192 190 187 186 184 181 177 175 176 179 182 188 193 198 202 207 213 216 220 222 219 216 215 214 219 225 227 229 246 304 356 3 3 357 350 343 336 336 341 348 354 2 36 52 55 59 58 59 58 50 42 34 31 35 37 38 38 38 38 37 36 34 31 28 25 20 16 13 9 6 356
196 187 177 172 174 187 197 198 199 200 197 194 194 194 192 189 186 183 180 178 175 175 178 182 187 191 194 196 199 202 206 209 215 221 222 221 220 219 224 228 227 229 240 267 308 337 350 350 345 340 330 329 330 334 343 350 23 54 57 63 59 46 38 32 25 20 21 25 27 28 28 26 26 27 29 32 31 28 24 18 10 5 358 354 352
199 195 184 175 172 180 191 197 199 197 194 195 195 193 191 188 184 182 180 178 177 178 182 187 191 193 195 198 200 199 200 204 210 216 221 224 223 224 228 230 230 230 238 254 276 307 329 336 338 338 328 320 320 320 326 333 349 48 55 58 72 41 38 40 34 28 27 28 28 27 23 19 14 11 12 14 18 20 20 17 9 3 351 340 338
199 197 191 183 178 179 186 194 197 193 192 194 193 192 191 189 186 184 183 181 182 184 187 191 193 195 198 199 199 198 198 201 207 212 217 222 225 226 229 233 233 234 238 248 262 283 300 314 326 335 331 316 309 306 311 317 321 8 47 17 331 68 71 66 55 43 37 35 36 34 30 24 19 13 7 0 358 358 1 4 3 360 352 340 333
198 197 194 189 183 181 184 191 195 192 190 192 192 192 192 192 191 190 189 188 189 191 193 196 198 198 199 200 200 198 199 203 208 211 214 218 223 227 230 234 235 236 239 246 257 268 277 290 310 328 331 318 301 296 299 306 307 318 29 359 322 72 80 75 61 46 41 39 38 37 33 28 22 17 12 4 354 347 340 336 332 328 326 322 318
198 198 197 193 187 185 186 188 193 193 191 191 192 193 194 196 197 197 197 197 197 199 201 202 203 203 202 202 201 200 200 205 210 212 213 216 220 225 229 234 237 240 243 247 253 259 267 279 297 318 326 317 299 289 292 299 303 304 326 337 311 26 73 68 55 43 42 41 37 34 28 22 18 14 10 5 359 353 344 334 322 311 304 299 298
199 199 199 196 191 191 190 189 191 193 192 192 193 196 198 199 200 201 201 202 203 203 205 206 207 207 206 205 204 203 204 208 212 216 217 218 220 224 229 233 237 240 242 245 250 256 265 275 286 302 315 312 298 287 286 294 300 300 299 300 299 322 34 45 39 34 36 37 35 29 23 18 15 12 6 1 1 359 355 350 341 328 315 307 302
200 201 201 199 196 195 194 191 191 193 193 193 195 198 201 204 205 205 204 205 206 206 207 209 210 212 212 210 209 208 208 211 215 219 222 224 224 226 229 233 237 240 241 243 247 253 261 271 279 290 303 304 296 286 283 287 295 298 295 291 294 310 343 4 10 17 22 25 24 22 19 17 15 12 4 358 359 1 360 357 355 350 341 331 322
202 202 202 202 201 200 198 195 193 194 194 194 197 200 204 208 211 211 210 210 210 210 211 211 213 215 216 216 215 214 213 215 217 222 226 228 228 229 231 234 237 241 243 246 249 252 257 265 273 280 292 298 294 285 279 282 289 294 293 287 288 299 318 336 346 358 8 12 11 11 10 8 7 7 3 357 356 358 357 355 354 353 348 343 337
202 202 202 202 203 203 201 199 198 199 198 197 198 201 204 208 212 214 214 214 214 215 216 216 218 219 221 222 223 222 221 221 223 226 229 232 233 234 235 237 239 242 245 247 249 252 256 262 267 271 280 291 294 286 278 277 282 289 291 288 287 292 305 317 331 346 357 1 2 1 2 2 2 1 360 358 354 351 349 346 346 345 343 340 337
202 201 204 205 206 206 204 202 201 202 202 201 200 200 200 203 208 212 214 215 216 217 218 219 221 223 225 227 228 228 228 229 231 233 236 238 239 240 241 241 242 242 244 246 249 252 256 261 264 266 271 281 290 288 279 274 276 282 286 285 285 288 295 304 315 332 344 350 352 352 353 356 358 357 355 354 349 343 340 338 338 337 335 333 330
204 204 207 209 212 212 210 208 206 205 204 203 203 201 199 202 205 209 212 215 217 217 218 220 223 225 228 231 232 233 235 237 239 241 242 243 244 245 246 246 246 246 245 247 248 251 255 259 263 265 267 272 282 287 281 273 270 276 280 280 282 284 288 295 304 316 329 337 340 341 342 345 349 350 348 347 342 334 330 331 332 331 329 327 323
207 206 209 210 212 214 215 214 212 212 209 206 205 203 202 205 207 209 212 215 217 220 223 225 227 229 231 234 236 238 241 243 245 246 247 247 248 250 251 252 252 252 251 250 251 252 255 258 261 264 266 267 273 281 281 274 267 268 273 274 275 278 281 287 294 302 312 321 325 327 329 334 339 340 340 341 338 332 323 321 324 325 323 322 319
209 210 212 212 211 214 220 219 214 213 213 211 208 207 209 210 210 212 213 214 218 223 226 228 230 231 233 235 236 238 242 245 246 248 249 251 252 254 255 255 256 256 255 254 253 254 256 258 260 262 264 263 267 274 279 275 267 263 266 269 269 271 275 281 287 292 299 307 313 317 321 327 332 334 335 336 336 334 327 319 320 322 322 320 318
211 211 213 213 211 212 221 226 221 213 212 215 213 213 216 217 218 220 218 217 219 223 227 231 233 233 233 233 234 238 243 245 247 249 252 254 256 257 258 258 257 257 256 256 256 256 257 259 261 262 263 264 264 269 274 274 267 260 260 263 264 264 267 273 280 286 292 299 305 312 318 324 328 330 332 334 335 335 332 324 320 320 320 319 318
213 213 213 211 209 211 217 227 231 224 217 218 218 219 222 224 227 229 227 225 223 223 226 230 233 234 233 233 236 241 245 247 250 252 254 256 257 258 260 261 260 258 257 258 259 259 259 261 263 265 267 267 266 267 270 271 266 259 256 258 259 259 260 264 271 278 285 292 299 307 315 320 324 326 329 331 330 330 329 325 319 316 315 315 315
213 213 212 208 207 212 218 224 233 237 233 226 222 222 225 228 232 235 238 238 234 228 225 227 231 233 233 235 239 243 247 250 250 251 252 254 256 258 260 262 262 262 262 261 261 261 262 263 265 267 268 268 267 266 266 266 264 258 254 254 255 256 257 259 263 270 278 285 291 299 308 313 317 321 324 325 325 326 325 324 320 317 316 315 314
212 210 210 209 209 214 220 223 227 235 240 238 233 229 229 232 235 238 240 243 243 237 231 228 231 233 234 237 240 244 249 251 250 250 251 254 256 258 259 261 262 264 265 264 263 263 262 262 263 265 266 266 266 265 263 261 260 257 253 252 253 254 256 258 259 264 272 278 283 290 300 306 310 316 320 320 320 321 321 322 321 321 322 321 320
213 211 210 210 212 215 218 221 223 228 237 243 243 242 239 238 238 239 238 240 242 242 238 234 235 237 238 240 242 246 250 250 249 249 252 255 257 259 260 261 263 265 266 266 265 262 259 257 258 259 261 263 265 264 262 258 256 255 253 252 253 254 255 258 258 259 264 269 274 282 291 299 304 310 316 319 319 318 317 319 320 323 327 329 327
213 214 214 213 214 215 217 219 222 224 231 240 245 247 248 246 246 243 238 235 237 239 239 237 239 242 243 243 246 249 250 248 246 247 250 253 257 260 260 259 259 259 259 260 262 263 259 255 254 256 258 260 262 261 260 256 253 253 254 254 254 254 255 257 259 259 260 263 267 275 284 292 298 305 311 316 319 318 316 317 318 322 329 332 330
215 217 218 217 216 217 219 220 221 222 225 233 240 245 249 252 253 248 240 235 234 237 238 238 240 243 244 245 248 250 249 247 246 246 249 252 256 256 252 249 246 242 242 246 256 269 272 267 263 262 261 261 261 261 259 255 252 253 254 255 256 256 255 256 258 260 261 261 263 268 277 285 293 301 306 311 316 318 318 318 317 317 325 330 329
217 219 220 220 220 220 221 221 221 221 222 229 237 241 245 250 253 253 246 238 235 235 236 237 238 240 241 242 245 247 247 246 246 247 249 250 251 248 243 238 232 229 232 238 250 268 280 281 278 274 270 267 265 263 262 259 256 255 255 255 257 257 257 257 259 261 262 263 263 265 271 280 290 297 302 305 312 315 317 319 315 312 322 329 329
218 218 218 220 222 222 222 221 220 219 220 226 235 239 241 243 246 249 247 241 238 238 239 239 238 236 236 237 241 244 244 244 245 247 248 248 248 245 241 236 232 233 236 242 256 266 273 280 284 283 280 277 273 270 266 263 261 259 257 256 257 258 259 260 261 262 264 265 265 266 270 278 287 295 299 303 307 310 312 316 313 308 316 325 326
218 218 218 220 223 225 224 223 222 221 222 225 232 238 240 239 241 243 243 241 239 237 238 237 234 233 234 236 238 241 242 242 244 246 246 248 249 248 245 240 238 242 247 254 263 266 267 271 276 280 281 280 279 276 272 268 265 262 259 258 258 260 261 262 264 265 267 267 268 269 272 278 287 294 297 300 304 306 307 310 312 308 310 316 321
219 220 219 220 222 225 226 226 226 227 227 227 230 236 240 241 240 240 241 240 237 235 234 232 231 233 233 233 233 235 237 239 241 242 245 248 249 249 249 248 248 249 253 259 265 267 265 264 265 270 274 275 276 276 272 269 266 263 261 259 259 261 263 265 267 269 269 269 270 272 274 279 286 292 294 297 301 303 304 306 310 311 310 313 319
221 221 219 216 216 218 221 224 227 229 229 229 230 234 239 241 240 238 238 240 240 238 236 234 233 233 229 227 228 230 232 235 237 239 242 245 247 248 248 248 248 249 253 259 265 266 266 263 260 259 263 267 271 273 272 268 264 262 260 260 260 261 263 266 267 269 269 270 271 273 275 279 285 289 292 294 296 298 300 303 308 311 312 314 317
223 224 223 223 221 219 219 220 223 227 229 230 230 231 235 239 240 238 237 239 243 244 243 242 240 236 232 229 230 230 233 234 235 237 239 240 242 243 243 242 243 247 254 260 262 263 264 264 262 257 257 261 265 269 271 269 266 263 260 259 259 259 261 264 266 267 268 269 271 273 275 277 281 286 290 292 292 293 296 300 304 308 310 311 313
228 228 230 234 235 233 229 225 223 224 227 228 227 228 232 236 239 241 240 239 242 245 247 246 243 242 242 243 243 242 241 238 236 236 237 237 238 239 239 240 243 248 252 255 257 260 263 265 265 262 258 258 260 264 268 270 270 268 264 261 261 261 261 263 265 267 268 269 271 273 274 276 278 282 286 288 288 288 291 296 301 304 306 307 309
230 232 235 237 239 238 237 234 228 225 226 226 224 226 230 232 235 239 241 242 243 245 247 247 246 247 250 252 252 251 251 248 243 238 238 239 241 242 243 244 246 248 249 251 255 261 266 268 268 266 263 260 259 261 263 267 271 271 269 267 266 267 265 265 266 268 269 271 271 272 273 275 276 278 282 284 285 285 287 292 296 299 301 303 305
234 235 238 240 239 237 236 235 232 228 227 227 226 226 228 229 231 235 239 242 244 246 249 251 252 253 254 252 251 251 253 255 251 245 243 244 245 246 247 247 248 249 251 253 255 257 261 264 266 268 269 268 264 261 261 263 267 271 272 272 273 273 272 269 268 268 270 272 272 273 273 274 275 278 280 281 282 283 285 288 292 294 297 299 301
237 239 240 241 240 237 235 234 233 231 230 229 229 229 229 227 228 232 236 240 244 247 250 253 254 254 253 251 250 250 249 251 251 250 250 251 250 248 248 249 250 251 253 255 255 256 258 262 267 271 273 273 269 266 263 262 264 269 273 275 276 277 277 276 275 273 273 274 275 275 274 274 276 278 279 280 281 283 285 286 289 291 293 296 297
237 239 241 241 239 237 236 236 234 233 232 231 230 231 231 228 226 228 231 236 244 248 249 251 252 252 251 250 251 250 247 247 251 253 254 255 255 253 252 253 254 255 256 257 260 262 264 267 271 274 275 275 275 273 272 269 266 267 269 273 275 276 278 280 281 280 280 279 278 276 275 276 277 278 279 280 280 282 284 285 286 289 291 294 294
235 237 239 240 239 238 237 237 237 235 234 233 233 234 233 230 228 228 229 233 240 246 248 250 251 252 251 251 251 251 251 252 255 257 257 258 260 260 258 257 259 261 262 263 267 269 269 270 273 275 276 276 276 276 276 274 271 268 268 269 272 274 277 279 281 282 282 280 279 277 276 276 277 277 278 279 279 281 282 283 285 286 289 291 291
234 236 237 239 239 238 238 238 238 237 235 235 237 238 237 234 232 230 230 232 236 241 246 250 253 256 257 255 253 252 253 255 258 258 259 260 262 263 262 261 263 266 267 269 272 273 273 273 274 276 277 277 277 275 273 272 271 271 270 270 271 273 276 277 278 279 279 279 278 277 275 274 274 276 276 276 277 279 280 281 283 284 285 287 287
235 235 236 238 239 239 238 238 238 238 237 236 237 239 240 239 236 233 232 233 234 236 241 245 249 253 257 259 260 259 258 258 258 259 261 263 263 264 264 266 269 270 270 271 272 274 275 275 277 278 279 279 279 277 274 272 271 270 269 271 273 274 275 275 275 276 276 277 277 275 274 271 270 271 273 273 275 276 278 279 280 281 283 283 283
238 238 237 237 238 239 239 238 238 238 238 238 238 238 239 240 240 237 235 235 235 236 238 241 243 246 249 252 255 258 260 260 260 260 261 261 262 263 265 269 271 272 271 269 271 274 276 278 279 280 280 281 281 280 277 274 271 270 269 269 271 273 274 275 277 277 276 275 275 275 276 274 271 271 271 272 272 273 274 276 277 279 280 281 281
238 239 239 238 238 239 240 241 240 238 238 238 239 239 239 240 241 241 240 239 238 239 241 242 244 245 247 249 251 254 257 259 260 261 261 260 261 263 265 267 270 271 270 270 272 275 277 278 280 280 280 282 283 282 281 277 273 271 271 270 270 272 274 274 277 279 278 276 275 275 277 278 276 273 271 269 269 269 270 271 272 274 276 277 279
236 239 240 239 239 240 241 242 242 242 240 239 240 241 241 241 242 243 244 244 244 244 245 245 247 248 250 251 253 254 255 256 258 259 260 260 262 264 266 267 268 269 271 272 274 276 278 279 280 280 281 282 283 282 281 279 276 274 274 274 274 274 275 275 277 277 275 274 273 273 274 276 274 273 272 271 269 269 269 269 269 271 272 274 276
235 238 240 241 241 241 242 243 244 245 243 241 240 241 242 242 243 245 246 247 248 249 249 249 250 251 252 254 256 257 257 257 259 260 261 262 264 265 267 269 270 271 273 275 276 277 278 278 278 279 281 282 282 280 279 277 277 276 277 277 277 276 276 277 277 276 274 273 273 273 275 276 275 276 277 276 274 274 275 274 274 275 278 279 278
236 237 240 241 242 242 242 242 243 245 245 244 241 240 241 242 244 245 247 249 250 251 251 252 254 255 257 259 260 262 263 264 265 265 265 265 266 267 268 270 272 272 273 273 274 274 274 275 276 278 280 281 281 280 279 277 276 277 277 277 276 276 277 276 276 277 277 276 275 275 276 276 277 279 281 280 280 281 284 284 282 281 282 283 281
237 238 240 242 243 244 243 243 243 244 245 245 244 243 242 242 244 246 248 250 251 252 253 253 254 256 257 259 261 262 263 265 266 267 267 268 268 269 270 271 270 270 270 269 270 270 271 273 275 277 279 280 280 280 280 278 277 277 277 275 274 274 276 277 277 278 278 276 274 273 273 272 274 277 280 281 282 285 288 289 288 284 281 278 277
239 239 240 241 243 244 244 244 244 245 246 246 247 247 246 245 245 246 248 250 251 253 254 254 255 255 256 258 260 261 262 264 266 267 267 268 269 269 269 268 267 267 268 268 269 270 272 273 275 276 277 278 279 280 279 278 277 276 275 275 274 274 275 276 277 277 277 276 274 274 273 271 271 274 275 276 278 280 283 287 289 285 277 271 272
243 242 241 241 242 244 244 244 245 245 245 246 247 247 247 247 246 246 246 247 248 250 252 254 255 256 257 259 260 262 264 265 266 266 266 266 266 266 265 265 265 265 266 268 269 271 272 273 274 275 275 276 277 277 276 276 275 275 275 276 276 276 276 276 276 275 275 276 275 274 274 273 273 274 275 276 277 277 279 284 287 284 277 271 275
247 246 244 243 243 244 246 246 246 245 245 245 246 247 248 248 247 246 245 246 246 246 248 250 252 255 257 259 260 261 262 262 263 263 263 262 262 261 262 263 264 265 267 268 269 270 271 272 273 274 274 275 275 275 275 276 275 275 275 275 275 275 275 276 276 276 276 276 276 274 273 273 274 275 276 278 277 276 279 283 283 279 274 274 278
Height
5898 5899 5900 5901 5902 5903 5905 5907 5908 5910 5911 5912 5914 5915 5917 5918 5920 5921 5923 5924 5926 5927 5928 5929 5930 5931 5932 5933 5934 5935 5936 5937 5937 5938 5938 5939 5939 5940 5940 5941 5942 5942 5943 5943 5944 5943 5943 5943 5943 5943 5942 5941 5940 5939 5938 5938 5937 5936 5935 5935 5934 5933 5933 5932 5931 5929 5929 5928 5928 5927 5927 5927 5927 5926 5926 5925 5926 5926 5927 5927 5927 5927 5926 5926 5925
5898 5899 5899 5900 5901 5903 5904 5906 5907 5909 5911 5912 5913 5915 5916 5917 5919 5921 5922 5924 5925 5926 5927 5929 5930 5931 5932 5933 5934 5935 5936 5937 5938 5938 5939 5939 5939 5940 5941 5941 5942 5942 5943 5944 5944 5943 5943 5943 5943 5943 5942 5941 5940 5939 5938 5937 5937 5936 5935 5934 5934 5933 5932 5931 5930 5929 5928 5928 5927 5926 5926 5926 5926 5926 5925 5925 5925 5925 5926 5926 5926 5926 5926 5925 5925
5896 5898 5899 5900 5901 5902 5904 5905 5906 5908 5910 5911 5913 5914 5916 5917 5918 5920 5922 5923 5924 5925 5927 5928 5930 5931 5932 5934 5935 5936 5937 5938 5938 5939 5939 5939 5940 5940 5941 5941 5942 5942 5943 5943 5944 5943 5943 5943 5943 5943 5942 5941 5940 5939 5938 5937 5937 5936 5935 5934 5934 5933 5932 5932 5931 5929 5929 5928 5927 5926 5926 5926 5925 5925 5925 5925 5925 5925 5924 5925 5925 5925 5925 5924 5924
5895 5896 5898 5899 5900 5902 5903 5905 5906 5907 5909 5911 5912 5914 5915 5916 5918 5919 5920 5922 5923 5924 5926 5928 5929 5931 5932 5934 5935 5936 5937 5937 5938 5938 5938 5939 5939 5940 5940 5941 5942 5942 5943 5943 5943 5943 5943 5943 5943 5942 5942 5941 5940 5939 5939 5938 5937 5936 5935 5934 5934 5933 5933 5932 5931 5930 5930 5929 5928 5928 5927 5926 5926 5925 5925 5925 5924 5924 5924 5924 5924 5923 5924 5924 5923
5894 5895 5896 5898 5900 5901 5903 5904 5905 5906 5908 5909 5911 5913 5914 5915 5916 5918 5919 5920 5922 5923 5925 5927 5929 5930 5932 5933 5934 5935 5936 5936 5937 5937 5938 5938 5939 5939 5940 5941 5941 5942 5943 5943 5943 5943 5943 5943 5943 5942 5942 5941 5940 5940 5939 5938 5937 5936 5935 5935 5934 5934 5933 5933 5932 5931 5931 5930 5930 5929 5928 5927 5927 5926 5925 5925 5924 5924 5923 5923 5923 5922 5922 5922 5922
5893 5894 5895 5897 5899 5900 5902 5903 5905 5906 5907 5908 5910 5912 5913 5914 5915 5916 5918 5919 5921 5923 5924 5926 5928 5929 5930 5932 5933 5934 5934 5935 5936 5937 5937 5938 5939 5939 5940 5941 5941 5942 5943 5943 5943 5943 5943 5943 5943 5942 5942 5941 5940 5940 5939 5939 5938 5937 5936 5935 5935 5934 5934 5933 5933 5932 5931 5931 5930 5929 5929 5928 5928 5927 5926 5925 5925 5924 5923 5923 5922 5922 5921 5921 5921
5893 5893 5894 5896 5897 5899 5901 5902 5904 5905 5906 5907 5909 5910 5912 5913 5914 5916 5917 5918 5920 5922 5923 5925 5926 5928 5929 5930 5931 5932 5933 5935 5935 5936 5937 5938 5938 5939 5940 5941 5941 5942 5943 5943 5943 5943 5943 5943 5943 5942 5942 5941 5941 5940 5940 5939 5938 5937 5936 5936 5935 5935 5934 5934 5933 5933 5932 5931 5930 5929 5929 5929 5928 5927 5927 5926 5925 5924 5924 5923 5923 5922 5921 5921 5921
5893 5893 5893 5894 5896 5898 5900 5901 5903 5904 5905 5906 5908 5909 5911 5912 5913 5914 5916 5917 5919 5921 5922 5923 5925 5926 5927 5928 5930 5931 5933 5934 5935 5935 5936 5937 5938 5939 5939 5940 5940 5941 5942 5942 5943 5943 5943 5943 5942 5942 5942 5941 5941 5940 5940 5939 5939 5937 5937 5936 5936 5935 5935 5934 5933 5933 5932 5931 5930 5930 5929 5929 5928 5928 5927 5926 5926 5925 5924 5924 5923 5922 5922 5921 5921
5894 5893 5892 5893 5895 5897 5899 5900 5901 5903 5904 5906 5907 5908 5909 5911 5912 5913 5915 5916 5918 5919 5921 5922 5923 5924 5926 5927 5928 5930 5931 5932 5933 5934 5935 5936 5937 5938 5938 5939 5940 5941 5941 5942 5942 5942 5942 5942 5942 5942 5941 5941 5940 5940 5940 5939 5939 5938 5937 5936 5936 5935 5935 5934 5934 5933 5932 5931 5931 5930 5929 5929 5928 5928 5927 5927 5926 5925 5924 5923 5923 5922 5922 5922 5921
5893 5894 5893 5893 5893 5895 5898 5899 5901 5902 5904 5905 5906 5907 5909 5910 5911 5913 5914 5915 5917 5918 5919 5921 5922 5923 5924 5926 5927 5928 5930 5931 5932 5933 5934 5934 5935 5936 5937 5938 5939 5940 5941 5941 5941 5941 5942 5941 5941 5941 5941 5940 5940 5940 5940 5940 5939 5938 5937 5937 5936 5936 5935 5934 5934 5933 5932 5932 5931 5930 5930 5929 5929 5928 5927 5927 5926 5925 5924 5924 5923 5922 5922 5921 5921
5892 5893 5893 5893 5893 5894 5896 5899 5901 5902 5903 5905 5906 5907 5909 5910 5911 5912 5914 5915 5916 5917 5918 5919 5921 5922 5923 5924 5925 5926 5928 5929 5930 5931 5932 5933 5934 5935 5936 5937 5938 5939 5940 5941 5941 5941 5941 5941 5941 5940 5940 5939 5939 5939 5939 5939 5939 5938 5937 5937 5936 5936 5935 5934 5934 5933 5933 5932 5931 5931 5930 5929 5928 5928 5927 5926 5925 5925 5925 5924 5923 5922 5922 5921 5921
5891 5892 5892 5893 5893 5894 5895 5898 5900 5901 5903 5904 5906 5907 5909 5911 5912 5912 5914 5915 5916 5917 5918 5919 5920 5921 5922 5922 5924 5925 5926 5928 5928 5929 5931 5932 5933 5934 5935 5936 5937 5938 5939 5939 5940 5940 5940 5940 5940 5939 5939 5938 5938 5939 5939 5939 5939 5938 5937 5936 5936 5935 5935 5934 5934 5933 5933 5932 5931 5931 5930 5929 5928 5927 5927 5926 5925 5924 5924 5924 5923 5922 5922 5921 5920
5889 5891 5891 5892 5893 5894 5895 5896 5899 5901 5902 5903 5905 5907 5908 5910 5911 5912 5913 5914 5915 5916 5917 5918 5919 5920 5921 5921 5923 5924 5925 5926 5927 5928 5929 5930 5931 5932 5933 5934 5935 5937 5938 5938 5939 5939 5939 5939 5939 5938 5938 5938 5938 5938 5938 5938 5939 5938 5937 5936 5936 5935 5935 5934 5934 5933 5933 5932 5931 5931 5930 5929 5928 5927 5926 5925 5924 5924 5923 5923 5922 5922 5921 5920 5920
5888 5889 5890 5892 5893 5894 5894 5895 5897 5899 5900 5902 5903 5905 5907 5908 5909 5910 5912 5913 5914 5915 5916 5917 5918 5919 5919 5921 5922 5923 5924 5924 5925 5927 5928 5929 5930 5931 5932 5933 5934 5935 5936 5937 5938 5938 5938 5938 5938 5938 5938 5937 5937 5937 5937 5938 5938 5938 5937 5936 5936 5935 5935 5934 5934 5933 5932 5931 5931 5931 5930 5929 5928 5927 5926 5925 5924 5923 5922 5921 5921 5920 5920 5919 5918
5887 5888 5890 5891 5892 5893 5894 5895 5896 5898 5899 5900 5902 5904 5906 5907 5908 5909 5910 5911 5912 5913 5915 5916 5917 5917 5918 5919 5921 5922 5923 5923 5924 5925 5926 5927 5928 5929 5930 5931 5932 5933 5935 5936 5936 5937 5937 5937 5937 5937 5937 5937 5936 5936 5936 5937 5937 5937 5936 5936 5935 5935 5934 5934 5933 5933 5932 5931 5931 5930 5930 5929 5929 5927 5926 5925 5924 5922 5921 5920 5919 5919 5918 5917 5917
5886 5887 5889 5890 5891 5893 5893 5894 5895 5896 5897 5899 5901 5903 5905 5906 5907 5908 5909 5910 5911 5912 5913 5914 5915 5916 5917 5918 5919 5921 5922 5922 5923 5924 5924 5925 5926 5927 5928 5929 5930 5932 5933 5934 5935 5935 5935 5936 5936 5936 5936 5936 5936 5935 5935 5936 5936 5936 5935 5935 5935 5934 5934 5933 5933 5932 5931 5931 5930 5930 5930 5929 5928 5927 5926 5925 5924 5923 5921 5920 5919 5918 5918 5917 5916
5885 5886 5888 5889 5890 5891 5893 5894 5895 5896 5897 5898 5899 5901 5903 5904 5905 5907 5908 5909 5910 5911 5912 5913 5914 5915 5916 5917 5918 5919 5920 5921 5922 5922 5923 5924 5925 5926 5926 5928 5929 5930 5931 5932 5933 5933 5934 5934 5934 5935 5935 5935 5935 5934 5934 5934 5934 5934 5934 5934 5934 5933 5933 5933 5932 5932 5931 5930 5930 5929 5929 5929 5928 5927 5926 5924 5923 5923 5922 5920 5920 5919 5918 5917 5916
5883 5885 5886 5887 5889 5890 5892 5893 5894 5895 5896 5897 5898 5899 5900 5902 5903 5904 5906 5908 5909 5910 5911 5911 5912 5913 5914 5915 5917 5918 5919 5920 5920 5921 5922 5922 5923 5924 5925 5926 5927 5928 5929 5930 5931 5931 5932 5932 5933 5933 5933 5934 5933 5933 5933 5933 5933 5933 5933 5933 5933 5933 5932 5932 5931 5931 5930 5930 5929 5928 5928 5928 5927 5926 5925 5924 5923 5922 5921 5920 5919 5919 5918 5917 5917
5882 5884 5885 5887 5888 5890 5891 5893 5894 5895 5896 5897 5897 5898 5899 5900 5901 5902 5904 5906 5907 5908 5909 5909 5911 5912 5913 5914 5915 5916 5917 5918 5919 5920 5921 5921 5922 5922 5923 5924 5924 5926 5927 5928 5928 5929 5930 5930 5931 5931 5931 5932 5932 5932 5931 5931 5931 5932 5932 5932 5932 5932 5931 5931 5930 5930 5929 5929 5928 5927 5927 5926 5926 5925 5924 5923 5922 5921 5921 5920 5919 5918 5917 5916 5915
5880 5882 5884 5886 5887 5889 5890 5892 5893 5894 5895 5896 5896 5897 5898 5899 5900 5901 5902 5904 5905 5907 5908 5909 5910 5911 5912 5913 5914 5915 5915 5916 5917 5918 5919 5919 5919 5920 5921 5922 5922 5924 5925 5926 5926 5927 5927 5928 5928 5929 5929 5930 5930 5930 5930 5930 5930 5930 5930 5930 5930 5930 5930 5930 5930 5929 5928 5928 5927 5927 5926 5925 5925 5924 5923 5922 5921 5920 5919 5918 5917 5916 5915 5914 5913
5879 5881 5883 5884 5886 5887 5888 5889 5890 5891 5893 5894 5895 5897 5897 5898 5899 5900 5901 5902 5904 5905 5907 5908 5909 5910 5911 5912 5913 5913 5913 5914 5914 5915 5916 5917 5917 5918 5919 5919 5920 5921 5922 5924 5924 5925 5925 5926 5926 5927 5927 5927 5927 5927 5928 5928 5928 5928 5928 5929 5929 5929 5929 5929 5928 5928 5927 5927 5926 5925 5924 5924 5923 5923 5922 5921 5920 5919 5918 5917 5916 5915 5914 5913 5912
5878 5879 5881 5882 5884 5885 5885 5886 5887 5889 5891 5893 5895 5896 5897 5898 5899 5899 5900 5901 5902 5904 5905 5906 5907 5908 5909 5910 5911 5911 5912 5912 5912 5913 5914 5915 5915 5916 5916 5917 5918 5919 5920 5921 5922 5923 5923 5923 5924 5924 5925 5925 5925 5925 5925 5926 5926 5926 5926 5927 5927 5927 5927 5927 5927 5927 5927 5926 5925 5924 5923 5922 5922 5921 5921 5920 5919 5918 5917 5916 5916 5915 5914 5912 5910
5875 5877 5879 5880 5882 5882 5883 5884 5885 5887 5889 5891 5893 5895 5897 5898 5898 5898 5899 5900 5901 5902 5903 5904 5905 5906 5907 5908 5909 5910 5910 5911 5911 5912 5912 5913 5913 5913 5914 5915 5916 5917 5918 5919 5920 5920 5921 5921 5921 5922 5922 5922 5922 5923 5923 5923 5924 5924 5924 5925 5925 5925 5925 5925 5925 5926 5925 5924 5923 5923 5922 5921 5921 5920 5919 5919 5918 5917 5916 5915 5914 5913 5913 5911 5910
5872 5874 5876 5878 5879 5880 5881 5882 5884 5885 5886 5888 5891 5893 5895 5896 5896 5897 5899 5900 5900 5901 5901 5902 5903 5904 5905 5906 5907 5908 5908 5909 5910 5911 5911 5911 5911 5912 5912 5913 5914 5914 5916 5916 5917 5917 5918 5918 5919 5919 5919 5919 5920 5920 5920 5921 5921 5922 5922 5922 5923 5923 5923 5923 5924 5924 5923 5923 5922 5921 5921 5920 5920 5919 5918 5917 5916 5915 5914 5913 5912 5911 5910 5909 5908
5869 5871 5873 5874 5876 5877 5879 5881 5882 5883 5884 5885 5888 5890 5892 5893 5894 5896 5897 5898 5898 5899 5900 5901 5901 5901 5902 5904 5905 5906 5906 5908 5908 5908 5909 5909 5909 5910 5911 5911 5912 5912 5913 5913 5914 5914 5915 5915 5915 5916 5916 5916 5916 5917 5917 5918 5918 5919 5919 5920 5921 5921 5921 5921 5921 5922 5921 5921 5920 5920 5920 5919 5919 5918 5917 5916 5915 5914 5912 5911 5909 5908 5908 5907 5906
5865 5867 5869 5871 5873 5875 5877 5878 5880 5881 5882 5883 5885 5887 5888 5890 5891 5893 5894 5895 5895 5897 5899 5899 5899 5900 5901 5902 5903 5904 5905 5905 5906 5906 5906 5906 5907 5908 5909 5909 5910 5910 5911 5911 5911 5911 5911 5912 5912 5912 5912 5912 5913 5913 5914 5915 5915 5916 5917 5917 5918 5919 5919 5919 5919 5920 5920 5919 5919 5919 5918 5918 5917 5917 5916 5914 5913 5912 5911 5910 5908 5907 5906 5905 5904
5863 5865 5867 5869 5871 5873 5874 5876 5878 5879 5880 5881 5882 5883 5885 5887 5888 5889 5890 5891 5892 5894 5896 5897 5898 5898 5900 5901 5901 5902 5903 5903 5903 5904 5904 5904 5905 5906 5907 5907 5908 5908 5909 5909 5909 5909 5909 5909 5908 5909 5909 5909 5909 5910 5911 5912 5912 5913 5914 5915 5916 5916 5916 5916 5917 5917 5917 5917 5917 5917 5917 5917 5916 5915 5914 5913 5912 5911 5910 5908 5907 5906 5905 5903 5901
5860 5862 5864 5867 5868 5870 5872 5873 5875 5876 5878 5879 5880 5881 5882 5883 5884 5885 5886 5888 5889 5891 5893 5895 5895 5896 5898 5899 5899 5899 5900 5900 5901 5901 5902 5902 5904 5904 5905 5905 5906 5907 5907 5907 5907 5907 5907 5907 5906 5906 5906 5906 5906 5907 5908 5909 5910 5911 5912 5912 5913 5914 5914 5914 5914 5914 5915 5915 5915 5915 5915 5915 5914 5913 5913 5911 5910 5909 5908 5907 5905 5904 5903 5901 5899
5856 5859 5862 5864 5866 5867 5869 5870 5872 5873 5875 5876 5877 5879 5880 5881 5881 5882 5883 5885 5886 5888 5890 5891 5892 5894 5896 5896 5896 5896 5897 5898 5898 5899 5900 5901 5902 5903 5903 5904 5904 5905 5905 5905 5905 5905 5905 5905 5905 5904 5904 5904 5904 5905 5905 5906 5907 5908 5909 5909 5910 5911 5911 5911 5911 5912 5912 5912 5912 5913 5913 5913 5912 5911 5910 5910 5909 5908 5907 5905 5903 5902 5901 5899 5897
5852 5854 5857 5859 5861 5863 5865 5866 5868 5870 5872 5874 5875 5876 5877 5878 5878 5879 5880 5882 5883 5885 5886 5888 5890 5892 5893 5893 5893 5894 5894 5895 5896 5897 5898 5899 5900 5901 5902 5902 5903 5903 5903 5904 5904 5904 5904 5903 5903 5903 5902 5902 5902 5903 5903 5904 5905 5905 5906 5906 5907 5908 5908 5908 5908 5909 5909 5909 5910 5910 5911 5911 5910 5909 5908 5907 5907 5906 5905 5904 5902 5900 5898 5897 5896
5848 5850 5852 5854 5856 5859 5861 5864 5866 5867 5869 5870 5872 5874 5875 5875 5876 5877 5878 5879 5880 5882 5884 5886 5887 5889 5889 5890 5891 5891 5892 5893 5894 5895 5896 5897 5897 5898 5899 5900 5901 5901 5901 5902 5902 5902 5902 5902 5901 5901 5900 5900 5900 5901 5901 5901 5902 5902 5902 5903 5903 5904 5905 5905 5906 5906 5906 5907 5907 5907 5908 5908 5908 5907 5905 5904 5904 5903 5902 5901 5900 5898 5896 5895 5893
5846 5847 5849 5851 5853 5856 5859 5861 5863 5864 5866 5868 5869 5870 5871 5873 5875 5876 5876 5877 5878 5880 5882 5883 5884 5885 5886 5887 5888 5889 5889 5890 5891 5892 5893 5894 5895 5896 5897 5898 5899 5899 5899 5899 5899 5900 5899 5899 5899 5899 5898 5898 5898 5898 5899 5899 5899 5899 5899 5899 5900 5901 5901 5902 5903 5903 5903 5903 5904 5904 5905 5905 5905 5904 5902 5901 5900 5899 5898 5898 5897 5895 5893 5892 5890
5844 5845 5847 5848 5850 5852 5855 5857 5859 5861 5863 5864 5866 5867 5869 5870 5872 5872 5873 5874 5876 5877 5879 5880 5881 5883 5884 5885 5885 5886 5887 5888 5889 5890 5891 5891 5892 5893 5894 5895 5896 5896 5896 5896 5896 5896 5896 5896 5896 5896 5896 5895 5895 5896 5896 5896 5896 5895 5895 5895 5896 5897 5897 5898 5899 5899 5899 5899 5900 5900 5901 5901 5901 5900 5899 5898 5897 5895 5894 5893 5893 5892 5890 5888 5887
5841 5843 5845 5846 5848 5849 5851 5854 5856 5857 5859 5861 5863 5864 5866 5867 5868 5869 5871 5872 5874 5875 5876 5878 5879 5880 5882 5883 5883 5884 5885 5886 5886 5887 5888 5889 5890 5891 5892 5892 5892 5893 5893 5893 5893 5893 5893 5893 5893 5893 5893 5893 5893 5893 5893 5893 5892 5892 5892 5892 5892 5892 5893 5893 5894 5895 5895 5895 5896 5897 5897 5898 5897 5897 5895 5894 5893 5891 5890 5889 5889 5888 5886 5885 5883
5839 5841 5843 5845 5846 5848 5849 5851 5852 5854 5856 5858 5860 5861 5863 5864 5865 5867 5869 5870 5871 5872 5873 5875 5877 5878 5879 5880 5881 5882 5883 5884 5884 5885 5886 5887 5887 5888 5889 5890 5890 5890 5890 5890 5890 5890 5891 5890 5890 5890 5890 5890 5890 5890 5890 5890 5889 5888 5888 5888 5887 5887 5888 5889 5889 5890 5891 5891 5892 5893 5894 5894 5893 5893 5892 5890 5889 5888 5886 5885 5885 5884 5882 5881 5879
5837 5838 5840 5842 5844 5846 5847 5848 5850 5851 5853 5854 5856 5858 5859 5861 5862 5864 5866 5868 5869 5870 5871 5872 5874 5876 5877 5878 5879 5880 5880 5881 5882 5882 5884 5885 5886 5886 5887 5887 5887 5887 5887 5887 5887 5887 5887 5887 5887 5887 5887 5887 5888 5887 5887 5887 5887 5885 5884 5884 5884 5884 5885 5885 5885 5885 5886 5887 5888 5889 5890 5890 5889 5889 5888 5886 5884 5883 5882 5881 5881 5880 5878 5877 5875
5833 5835 5837 5839 5841 5843 5845 5846 5847 5849 5850 5851 5853 5854 5856 5858 5860 5861 5864 5865 5866 5868 5869 5870 5871 5873 5874 5875 5876 5877 5878 5878 5879 5880 5881 5883 5883 5884 5884 5884 5884 5884 5884 5884 5884 5884 5884 5883 5884 5884 5884 5884 5884 5884 5884 5884 5883 5882 5881 5880 5880 5880 5881 5881 5881 5881 5882 5882 5883 5884 5885 5885 5884 5884 5883 5882 5880 5879 5878 5878 5877 5875 5874 5872 5871
5830 5832 5834 5836 5838 5840 5842 5843 5845 5846 5848 5849 5850 5852 5853 5855 5857 5859 5860 5862 5864 5865 5867 5867 5869 5870 5871 5872 5873 5874 5875 5876 5876 5877 5879 5879 5880 5880 5880 5880 5880 5880 5881 5881 5880 5880 5880 5880 5880 5880 5880 5880 5880 5880 5881 5881 5880 5879 5877 5877 5877 5876 5876 5877 5877 5877 5877 5878 5878 5879 5879 5879 5879 5879 5879 5877 5875 5874 5873 5873 5872 5870 5869 5868 5866
5827 5829 5831 5833 5835 5837 5838 5840 5842 5844 5845 5846 5848 5849 5850 5852 5854 5855 5857 5859 5861 5862 5863 5864 5865 5866 5867 5869 5870 5871 5872 5873 5874 5875 5875 5875 5875 5875 5876 5876 5876 5876 5876 5876 5876 5876 5877 5877 5877 5876 5876 5875 5876 5876 5877 5877 5876 5875 5874 5873 5872 5872 5872 5872 5872 5872 5873 5873 5873 5873 5873 5874 5873 5873 5874 5873 5871 5869 5868 5869 5868 5866 5865 5864 5861
5824 5826 5828 5830 5832 5834 5835 5837 5839 5840 5842 5843 5845 5846 5847 5849 5850 5852 5854 5856 5858 5859 5860 5861 5861 5862 5864 5866 5867 5868 5869 5870 5871 5871 5871 5871 5871 5871 5871 5872 5872 5872 5872 5872 5872 5872 5873 5873 5873 5872 5872 5871 5871 5871 5872 5872 5872 5871 5870 5868 5867 5867 5867 5867 5867 5867 5867 5867 5866 5866 5868 5868 5867 5867 5869 5868 5865 5864 5863 5863 5863 5862 5860 5858 5856
5819 5822 5824 5826 5828 5830 5832 5834 5835 5837 5838 5840 5841 5842 5844 5845 5847 5849 5851 5853 5855 5856 5857 5858 5859 5860 5861 5862 5864 5865 5866 5867 5867 5867 5867 5867 5868 5868 5868 5868 5868 5868 5868 5868 5868 5868 5868 5868 5868 5868 5867 5867 5867 5866 5866 5867 5867 5867 5866 5864 5862 5862 5863 5862 5861 5861 5861 5861 5860 5860 5861 5862 5861 5861 5862 5862 5859 5858 5857 5857 5857 5857 5855 5853 5851
5814 5817 5819 5822 5824 5826 5828 5830 5832 5833 5835 5836 5838 5839 5841 5842 5843 5845 5847 5849 5851 5853 5854 5855 5856 5857 5858 5859 5860 5861 5862 5862 5862 5863 5863 5864 5864 5864 5864 5864 5864 5864 5864 5864 5863 5863 5863 5863 5863 5863 5862 5863 5863 5862 5861 5861 5862 5862 5861 5859 5858 5857 5857 5856 5855 5855 5855 5854 5854 5852 5853 5854 5855 5854 5855 5855 5853 5851 5850 5850 5850 5850 5848 5846 5844
5808 5811 5814 5817 5819 5822 5824 5826 5828 5830 5831 5832 5834 5836 5837 5838 5840 5842 5843 5845 5847 5849 5850 5851 5853 5854 5854 5855 5856 5856 5857 5858 5858 5859 5859 5859 5860 5860 5860 5860 5860 5859 5859 5859 5858 5858 5858 5858 5857 5857 5857 5857 5857 5857 5856 5857 5857 5856 5855 5855 5853 5852 5851 5850 5849 5849 5849 5848 5847 5845 5845 5848 5849 5847 5847 5848 5846 5844 5843 5843 5843 5843 5841 5839 5837
5803 5805 5808 5811 5814 5816 5819 5821 5823 5825 5827 5828 5830 5832 5833 5835 5836 5837 5839 5841 5842 5844 5845 5847 5848 5849 5850 5851 5852 5853 5853 5853 5854 5854 5854 5855 5855 5855 5855 5855 5855 5854 5854 5854 5853 5853 5853 5852 5852 5852 5851 5851 5851 5851 5851 5852 5852 5851 5850 5849 5848 5847 5845 5844 5843 5843 5842 5841 5839 5838 5839 5843 5843 5840 5840 5840 5838 5836 5835 5835 5835 5835 5833 5831 5830
5798 5800 5802 5805 5808 5811 5813 5816 5818 5820 5822 5824 5825 5827 5829 5830 5832 5833 5834 5836 5837 5839 5840 5842 5843 5844 5845 5846 5847 5848 5848 5849 5849 5849 5849 5850 5850 5850 5850 5850 5850 5849 5848 5848 5848 5848 5847 5847 5846 5846 5845 5845 5845 5844 5844 5845 5846 5845 5844 5844 5843 5842 5840 5838 5837 5837 5834 5831 5830 5830 5833 5835 5835 5833 5832 5831 5829 5828 5827 5827 5827 5826 5825 5824 5823
5793 5795 5798 5800 5803 5806 5808 5811 5813 5814 5817 5819 5820 5822 5824 5826 5827 5828 5830 5831 5832 5834 5835 5836 5837 5838 5839 5840 5841 5842 5843 5843 5843 5844 5844 5844 5844 5844 5844 5844 5844 5843 5843 5843 5843 5842 5841 5841 5840 5840 5840 5839 5837 5836 5837 5839 5839 5838 5838 5838 5837 5836 5834 5832 5830 5829 5825 5821 5821 5822 5825 5828 5827 5825 5824 5823 5821 5821 5820 5819 5818 5818 5817 5816 5816
5788 5790 5793 5795 5798 5800 5803 5805 5807 5809 5811 5813 5815 5817 5819 5820 5822 5824 5825 5826 5827 5828 5829 5831 5832 5833 5833 5834 5835 5836 5836 5837 5837 5838 5838 5839 5839 5839 5839 5838 5838 5838 5838 5838 5837 5837 5836 5835 5834 5834 5833 5831 5829 5829 5830 5832 5833 5832 5832 5832 5830 5829 5827 5824 5822 5821 5817 5813 5813 5815 5817 5819 5819 5817 5816 5816 5814 5814 5813 5811 5810 5810 5809 5809 5808
5783 5785 5788 5790 5793 5795 5797 5799 5802 5804 5805 5807 5809 5811 5814 5815 5817 5818 5820 5821 5822 5823 5824 5825 5826 5827 5828 5828 5829 5830 5830 5831 5831 5832 5832 5833 5833 5832 5832 5832 5832 5832 5832 5832 5831 5831 5830 5829 5828 5826 5824 5822 5822 5822 5823 5825 5827 5826 5825 5824 5822 5822 5820 5817 5815 5813 5807 5803 5805 5807 5808 5810 5811 5810 5809 5809 5808 5807 5806 5804 5803 5802 5801 5800 5798
5777 5780 5782 5785 5787 5790 5792 5794 5796 5798 5800 5802 5804 5806 5808 5810 5811 5813 5814 5815 5816 5817 5818 5819 5820 5821 5822 5822 5823 5824 5824 5825 5825 5826 5826 5826 5826 5826 5826 5826 5826 5826 5826 5825 5824 5823 5823 5822 5820 5819 5817 5815 5815 5815 5816 5817 5818 5818 5816 5815 5815 5814 5812 5810 5809 5804 5797 5794 5796 5799 5801 5803 5804 5803 5802 5801 5800 5800 5799 5798 5796 5796 5795 5793 5791
5772 5774 5776 5779 5781 5784 5786 5788 5791 5793 5795 5797 5799 5801 5802 5804 5805 5807 5808 5809 5810 5811 5812 5813 5814 5815 5815 5816 5817 5818 5818 5818 5819 5819 5819 5819 5819 5819 5819 5819 5820 5820 5819 5818 5817 5816 5816 5815 5813 5812 5811 5809 5808 5809 5808 5808 5809 5809 5808 5806 5806 5805 5804 5801 5799 5795 5789 5788 5790 5792 5794 5796 5796 5795 5795 5794 5793 5793 5792 5791 5790 5789 5789 5788 5789
5765 5768 5770 5773 5775 5777 5780 5782 5785 5787 5789 5791 5793 5795 5797 5798 5799 5801 5802 5803 5804 5805 5806 5807 5807 5808 5809 5810 5810 5811 5811 5812 5812 5812 5812 5813 5813 5814 5814 5813 5813 5813 5812 5812 5811 5810 5810 5808 5806 5805 5804 5803 5802 5802 5801 5800 5801 5802 5800 5798 5796 5796 5794 5791 5789 5786 5782 5780 5781 5783 5785 5787 5787 5787 5787 5787 5786 5785 5784 5784 5784 5783 5782 5783 5784